User: anonymous   Login
Location: Unspecified
(0.0000°N, 0.0000°E)
Time: 05:23:37
(UTC+00:00)
Language:

NNS O-23 - Orbit

View from above orbital plane
View from above orbital plane
View from above satellite
View from above satellite

Ground track
Ground track

The orbit data is extracted from the following two-line orbital elements,

1 19070U 88033A   17324.97910198  .00000048  00000-0  76926-4 0  9996
2 19070  90.3659 278.9770 0192498  84.6082 318.0833 13.27418711432237
Epoch (UTC): 20 November 2017 23:29:54
Eccentricity: 0.0192498
inclination: 90.3659°
perigee height: 1011 km
apogee height: 1301 km
right ascension of ascending node: 278.9770°
argument of perigee: 84.6082°
revolutions per day: 13.27418711
mean anomaly at epoch: 318.0833°
orbit number at epoch: 43223

The dashed part of the orbit path shows where the satellite is in the earth's shadow,  

DLR